Flag Weather past 2 weeks in Whistler, British Columbia, Canada

Now
48 °F

Cool.


Feels Like: 48 °F
Forecast: 40 / 47 °F
Wind: 2 mph from North

Location: Squamish Airport

Current Time: Oct 30, 2014 at 7:59:27 AM

Latest Report: Oct 30, 2014 at 7:00 AM


Visibility: N/A

Pressure: 29.92 "Hg

Humidity: 100%

Dew point: 48 °F

Location of WhistlerLocation

Historic Weather in Whistler — Graph

°F

Whistler temperature yesterday

Maximum temperature yesterday: 54 °F (at 4:00 PM)
Minimum temperature yesterday: 30 °F (at 10:00 PM)
Average temperature yesterday: 48 °F

Past Weeks' High & Low Weather Summary

 TemperatureHumidityPressure
High63 °F (Oct 20, 2:00 PM)100% (Oct 15, 6:00 PM)30.14 "Hg (Oct 15, 6:00 PM)
Low30 °F (Oct 29, 10:00 PM)65% (Oct 20, 4:00 PM)29.32 "Hg (Oct 25, 7:00 PM)
Average50 °F94%29.80 "Hg
* Reported Oct 15 7:00 AM — Oct 30 7:00 AM, Whistler, Weather by CustomWeather, © 2014

Note: Actual official high and low records may vary slightly from our data, if they occured in-between our weather recording intervals... More about our weather records

Advertising

Whistler weather history for previous 24 hours

 ConditionsComfort  
Time TempWeatherWind HumidityBarometerVisibility
7:00 AM
Oct 30
48 °FCool.2 mph100%29.92 "HgN/A
6:00 AM48 °FCool.2 mph99%29.94 "HgN/A
5:00 AM49 °FCool.3 mph99%29.98 "HgN/A
4:00 AM48 °FCool.3 mph99%29.99 "HgN/A
3:00 AM48 °FCool.2 mph99%30.03 "HgN/A
2:00 AM49 °FCool.5 mph99%30.03 "HgN/A
1:00 AM48 °FCool.1 mph99%30.05 "HgN/A
12:00 AM49 °FCool.1 mph100%30.06 "HgN/A
11:00 PM
Oct 29
49 °FCool.1 mph99%30.07 "HgN/A
10:00 PM30 °FChilly.1 mph100%30.09 "HgN/A
9:00 PM50 °FCool.2 mph99%30.07 "HgN/A
8:00 PM50 °FCool.1 mph98%30.09 "HgN/A
7:00 PM51 °FCool.1 mph99%30.09 "HgN/A
6:00 PM52 °FCool.1 mph91%30.08 "HgN/A
5:00 PM53 °FCool.No wind97%30.08 "HgN/A
4:00 PM54 °FCool.1 mph97%30.08 "HgN/A
3:00 PM54 °FCool.2 mph95%30.08 "HgN/A
2:00 PM53 °FCool.1 mph93%30.07 "HgN/A
1:00 PM51 °FCool.1 mph96%30.07 "HgN/A
12:00 PM50 °FCool.1 mph97%30.06 "HgN/A
11:00 AM49 °FCool.1 mph98%30.05 "HgN/A
10:00 AM48 °FCool.1 mph97%30.03 "HgN/A
9:00 AM47 °FCool.2 mph99%30.01 "HgN/A
8:00 AM47 °FCool.No wind99%29.97 "HgN/A
7:00 AM46 °FCool.1 mph100%29.96 "HgN/A
Weather by CustomWeather, © 2014

See weather overviewHow to use our weather pages